This demonstration page uses our WeatherBlox Daily Observations layout. Learn more.

Left ArrowRight Arrow

Hourly Observations for December 15, 2021

Temp ( °F °C ) Dew Point ( °F °C ) Humidity (%) Winds ( mph kmh ) Pressure ( in mb ) Visibility ( mi km ) Precip ( " mm )
12:15 am 00:15 Clear 43 6.2 32 -0.1 64 64 S 9 15 29.66 1004 10 16 0.00 0.00
12:35 am 00:35 Clear 43 6 31 -0.3 64 64 S 12 19 29.65 1004 10 16 0.00 0.00
12:55 am 00:55 Clear 41 4.8 31 -0.5 69 69 S 12 19 29.66 1004 10 16 0.00 0.00
1:15 am 01:15 Clear 43 6.2 30 -1 60 60 SSW 12 19 29.64 1004 10 16 0.00 0.00
1:35 am 01:35 Clear 43 6.2 30 -1.2 59 59 SSW 12 19 29.64 1004 10 16 0.00 0.00
1:55 am 01:55 Clear 43 6.2 30 -1.3 59 59 SSW 10 17 29.64 1004 10 16 0.00 0.00
2:15 am 02:15 Clear 44 6.6 31 -0.8 60 60 SSW 12 19 29.63 1003 10 16 0.00 0.00
2:35 am 02:35 Clear 44 6.5 30 -1.1 59 59 SSW 10 17 29.63 1004 10 16 0.00 0.00
2:55 am 02:55 Clear 44 6.6 30 -1 59 59 SSW 9 15 29.63 1003 10 16 0.00 0.00
3:15 am 03:15 Clear 44 6.7 31 -0.6 60 60 SSW 9 15 29.63 1003 10 16 0.00 0.00
3:35 am 03:35 Clear 45 7 31 -0.5 59 59 SSW 9 15 29.62 1003 10 16 0.00 0.00
3:55 am 03:55 Clear 45 7.2 31 -0.3 59 59 SSW 9 15 29.62 1003 10 16 0.00 0.00
4:15 am 04:15 Clear 45 7.1 31 -0.5 59 59 S 10 17 29.61 1003 10 16 0.00 0.00
4:35 am 04:35 Clear 42 5.8 31 -0.4 65 65 S 8 13 29.62 1003 10 16 0.00 0.00
4:55 am 04:55 Clear 45 7.3 32 -0.1 60 60 S 9 15 29.60 1002 10 16 0.00 0.00
5:15 am 05:15 Clear 46 7.7 32 0 59 59 SSW 8 13 29.59 1002 10 16 0.00 0.00
5:35 am 05:35 Clear 46 7.6 32 0 59 59 S 8 13 29.58 1002 10 16 0.00 0.00
5:55 am 05:55 Clear 46 7.5 32 0 59 59 S 9 15 29.57 1002 10 16 0.00 0.00
6:15 am 06:15 Clear 46 7.6 32 0.1 59 59 SSW 10 17 29.57 1001 10 16 0.00 0.00
6:35 am 06:35 Clear 47 8.6 33 0.4 57 57 S 16 26 29.56 1001 10 16 0.00 0.00
6:55 am 06:55 Clear 50 10.1 33 0.6 52 52 SSW 13 20 29.53 1000 10 16 0.00 0.00
7:15 am 07:15 Clear 50 10 33 0.5 52 52 S 13 20 29.52 1000 10 16 0.00 0.00
7:35 am 07:35 Clear 50 9.9 33 0.5 52 52 S 16 26 29.51 999 10 16 0.00 0.00
7:55 am 07:55 Sunny 50 10 33 0.7 53 53 S 17 28 29.50 999 10 16 0.00 0.00
8:15 am 08:15 Sunny 49 9.7 33 0.7 54 54 S 17 28 29.49 998 10 16 0.00 0.00
8:35 am 08:35 Sunny 50 10 34 1 54 54 S 12 19 29.46 998 10 16 0.00 0.00
8:55 am 08:55 Sunny 50 10 34 1 54 54 S 15 24 29.46 998 10 16 0.00 0.00
9:15 am 09:15 Sunny 50 10.1 34 1 54 54 S 17 28 29.45 997 10 16 0.00 0.00
9:35 am 09:35 Sunny 53 11.5 33 0.6 47 47 SSE 21 33 29.43 997 10 16 0.00 0.00
9:55 am 09:55 Sunny 55 12.7 32 0.1 42 42 SSE 23 37 29.40 996 10 16 0.00 0.00
10:15 am 10:15 Sunny 57 13.8 31 -0.5 38 38 S 22 35 29.38 995 10 16 0.00 0.00
10:35 am 10:35 Sunny 58 14.7 31 -0.6 35 35 S 21 33 29.36 994 10 16 0.00 0.00
10:55 am 10:55 Sunny 60 15.4 33 0.4 36 36 S 26 43 29.35 994 10 16 0.00 0.00
11:15 am 11:15 Sunny 61 16.1 35 1.9 39 39 S 24 39 29.32 993 10 16 0.00 0.00
11:35 am 11:35 Sunny 62 16.5 38 3.6 42 42 S 29 46 29.29 992 10 16 0.00 0.00
11:55 am 11:55 Sunny 63 17.2 42 5.8 47 47 S 25 41 29.26 991 10 16 0.00 0.00
12:15 pm 12:15 Sunny 65 18.1 46 7.5 50 50 S 31 50 29.22 990 10 16 0.00 0.00
12:35 pm 12:35 Sunny 66 18.8 47 8.2 50 50 S 31 50 29.19 988 10 16 0.00 0.00
12:55 pm 12:55 Partly Cloudy 67 19.3 47 8.5 50 50 S 30 48 29.15 987 10 16 0.00 0.00
1:15 pm 13:15 Mostly Cloudy with Strong Thunderstorms 64 18 49 9.2 57 57 SSW 52 83 29.17 988 7 11 0.03 0.76
1:35 pm 13:35 Cloudy with Haze 55 12.7 47 8.1 74 74 WSW 18 30 29.17 988 5 8 0.10 2.54
1:55 pm 13:55 Mostly Cloudy with Haze 58 14.4 47 8.3 67 67 SSW 13 20 29.14 987 5 8 0.10 2.54
2:15 pm 14:15 Mostly Cloudy with Haze 58 14.6 45 7 61 61 SSW 25 41 29.13 987 5 8 0.00 0.00
2:35 pm 14:35 Cloudy with Haze 56 13.6 33 0.7 42 42 SW 17 28 29.13 987 5 8 0.00 0.00
2:55 pm 14:55 Cloudy with Haze 56 13.5 29 -1.7 35 35 SW 25 41 29.11 986 5 8 0.00 0.00
3:15 pm 15:15 Cloudy with Haze 56 13.2 25 -3.7 31 31 SW 26 43 29.11 986 4 6 0.00 0.00
3:35 pm 15:35 Cloudy with Haze 55 13 26 -3.4 32 32 SW 17 28 29.11 986 4 6 0.00 0.00
3:55 pm 15:55 Cloudy with Haze 56 13.4 24 -4.5 29 29 SW 20 31 29.10 986 2 3 0.00 0.00
4:15 pm 16:15 Cloudy 48 9.1 37 2.5 64 64 W 31 50 29.19 989 10 16 0.00 0.00
4:35 pm 16:35 Cloudy with Light Rain 46 7.7 38 3.1 73 73 WNW 37 59 29.26 991 10 16 0.00 0.00
4:55 pm 16:55 Cloudy with Light Rain 37 3 33 0.8 86 86 WNW 38 61 29.40 995 5 8 0.02 0.51
5:15 pm 17:15 Cloudy with Light Rain 35 1.5 32 -0.2 89 89 WNW 36 57 29.51 999 4 6 0.00 0.00
5:35 pm 17:35 Cloudy with Drizzle 35 1.4 31 -0.4 88 88 WNW 29 46 29.58 1002 7 11 0.00 0.00
5:55 pm 17:55 Cloudy 35 1.7 31 -0.8 84 84 WNW 25 41 29.62 1003 10 16 0.00 0.00
6:15 pm 18:15 Mostly Cloudy 35 1.5 29 -1.9 78 78 WNW 39 63 29.62 1003 10 16 0.00 0.00
6:35 pm 18:35 Partly Cloudy 34 1.1 27 -2.9 75 75 NW 44 70 29.60 1002 10 16 0.00 0.00
6:55 pm 18:55 Clear 33 0.5 26 -3.6 74 74 WNW 25 41 29.69 1005 10 16 0.00 0.00
7:15 pm 19:15 Clear 33 0.7 27 -2.9 77 77 WNW 17 28 29.73 1007 10 16 0.00 0.00
7:35 pm 19:35 Clear 33 0.5 26 -3.2 77 77 WNW 22 35 29.74 1007 10 16 0.00 0.00
7:55 pm 19:55 Clear 33 0.3 25 -3.9 74 74 WNW 20 31 29.79 1009 10 16 0.00 0.00
8:15 pm 20:15 Clear 33 0.3 24 -4.2 72 72 WNW 22 35 29.82 1010 10 16 0.00 0.00
8:35 pm 20:35 Clear 32 0 24 -4.7 71 71 WNW 22 35 29.84 1011 10 16 0.00 0.00
8:55 pm 20:55 Clear 32 0 24 -4.7 71 71 WNW 15 24 29.87 1012 10 16 0.00 0.00
9:15 pm 21:15 Clear 31 -0.5 24 -4.7 74 74 W 10 17 29.91 1013 10 16 0.00 0.00
9:35 pm 21:35 Clear 31 -0.3 23 -4.8 72 72 WNW 15 24 29.92 1013 10 16 0.00 0.00
9:55 pm 21:55 Clear 31 -0.3 23 -5 71 71 WNW 15 24 29.92 1013 10 16 0.00 0.00
10:15 pm 22:15 Clear 31 -0.3 23 -5 71 71 WNW 14 22 29.94 1014 10 16 0.00 0.00
10:35 pm 22:35 Clear 32 -0.2 23 -5 70 70 WNW 16 26 29.96 1014 10 16 0.00 0.00
10:55 pm 22:55 Clear 32 0 23 -5.2 68 68 WNW 17 28 29.94 1014 10 16 0.00 0.00
11:15 pm 23:15 Clear 32 0 22 -5.3 68 68 WNW 20 31 29.93 1014 10 16 0.00 0.00
11:35 pm 23:35 Clear 32 -0.2 23 -5.1 70 70 NW 17 28 29.94 1014 10 16 0.00 0.00
11:55 pm 23:55 Clear 31 -0.5 23 -5.1 71 71 WNW 14 22 29.97 1015 10 16 0.00 0.00

Powered by AerisWeather